Location: Newark
(48.1500°N, 2.9667°W)
Time: 20:22:44
(UTC+00:00)

A-11 Canister half - Pass Details

Date: 29 January 2020
Orbit: 1524 x 1684 km, 47.3° (Epoch: 19 February)

Event Time Altitude Azimuth Distance (km) Brightness Sun altitude
Rises 18:53:12 0° 260° (W) 4,678 13.3 -17.9°
Reaches altitude 10° 18:56:13 10° 260° (W) 3,705 12.3 -18.4°
Maximum altitude 19:05:36 85° 174° (S) 1,570 9.0 -19.9°
Enters shadow 19:11:02 31° 89° (E) 2,524 9.5 -20.8°
Drops below altitude 10° 19:15:17 10° 88° (E) 3,813 - -21.6°
Sets 19:18:25 0° 88° (E) 4,820 - -22.1°
